Time,TemperatureF,DewpointF,PressureIn,WindDirection,WindDirectionDegrees,WindSpeedMPH,WindSpeedGustMPH,Humidity,HourlyPrecipIn,Conditions,Clouds,dailyrainin,SolarRadiationWatts/m^2,SoftwareType,DateUTC
2013-09-01 00:00:00,72.8,68.4,29.79,SW,234,0.0,0.0,86,0.00,,,0.00,0,Wunderground v.1.15,2013-09-01 04:00:00,
2013-09-01 00:10:00,72.9,68.5,29.79,SW,234,0.0,0.0,86,0.00,,,0.00,0,Wunderground v.1.15,2013-09-01 04:10:00,
2013-09-01 00:20:00,72.9,68.5,29.80,SW,234,0.0,0.0,86,0.00,,,0.00,0,Wunderground v.1.15,2013-09-01 04:20:00,
2013-09-01 00:30:00,72.8,68.7,29.79,SW,234,0.0,0.0,87,0.00,,,0.00,0,Wunderground v.1.15,2013-09-01 04:30:00,
2013-09-01 00:40:00,72.3,68.2,29.79,SW,234,0.0,0.0,87,0.00,,,0.00,0,Wunderground v.1.15,2013-09-01 04:40:00,
2013-09-01 00:50:00,72.3,68.5,29.79,SW,234,0.0,0.0,88,0.00,,,0.00,0,Wunderground v.1.15,2013-09-01 04:50:00,
2013-09-01 01:00:00,71.9,68.5,29.78,SW,219,0.0,0.0,89,0.00,,,0.00,0,Wunderground v.1.15,2013-09-01 05:00:00,
2013-09-01 01:10:00,71.7,68.6,29.78,SW,215,0.0,0.0,90,0.00,,,0.00,0,Wunderground v.1.15,2013-09-01 05:10:00,
2013-09-01 01:20:00,71.6,68.5,29.78,SW,215,0.0,0.0,90,0.00,,,0.00,0,Wunderground v.1.15,2013-09-01 05:20:00,
2013-09-01 01:30:00,71.2,68.1,29.77,SW,215,0.0,0.0,90,0.00,,,0.00,0,Wunderground v.1.15,2013-09-01 05:30:00,
2013-09-01 01:40:00,70.2,67.4,29.77,SW,215,0.0,0.0,91,0.00,,,0.00,0,Wunderground v.1.15,2013-09-01 05:40:00,
2013-09-01 01:50:00,70.1,68.0,29.77,SW,215,0.0,0.0,93,0.00,,,0.00,0,Wunderground v.1.15,2013-09-01 05:50:00,
2013-09-01 02:00:00,70.3,68.2,29.77,SW,215,0.0,0.0,93,0.00,,,0.00,0,Wunderground v.1.15,2013-09-01 06:00:00,
2013-09-01 02:10:00,70.4,68.0,29.77,SW,215,0.0,0.0,92,0.00,,,0.00,0,Wunderground v.1.15,2013-09-01 06:10:00,
2013-09-01 02:20:00,70.4,68.0,29.77,SW,215,0.0,0.0,92,0.00,,,0.00,0,Wunderground v.1.15,2013-09-01 06:20:00,
2013-09-01 02:30:00,70.4,68.0,29.77,SW,215,0.0,0.0,92,0.00,,,0.00,0,Wunderground v.1.15,2013-09-01 06:30:00,
2013-09-01 02:40:00,70.3,67.9,29.77,SW,215,0.0,0.0,92,0.00,,,0.00,0,Wunderground v.1.15,2013-09-01 06:40:00,
2013-09-01 02:50:00,70.2,68.1,29.77,SW,215,0.0,0.0,93,0.00,,,0.00,0,Wunderground v.1.15,2013-09-01 06:50:00,
2013-09-01 03:00:00,70.0,67.9,29.77,SW,215,0.0,0.0,93,0.00,,,0.00,0,Wunderground v.1.15,2013-09-01 07:00:00,
2013-09-01 03:10:00,69.7,67.6,29.77,SW,215,0.0,0.0,93,0.00,,,0.00,0,Wunderground v.1.15,2013-09-01 07:10:00,
2013-09-01 03:20:00,69.7,67.6,29.77,SW,215,0.0,0.0,93,0.00,,,0.00,0,Wunderground v.1.15,2013-09-01 07:20:00,
2013-09-01 03:30:00,69.5,67.4,29.77,SW,215,0.0,0.0,93,0.00,,,0.00,0,Wunderground v.1.15,2013-09-01 07:30:00,
2013-09-01 03:40:00,68.9,67.1,29.77,SW,215,0.0,0.0,94,0.00,,,0.00,0,Wunderground v.1.15,2013-09-01 07:40:00,
2013-09-01 03:50:00,68.7,66.9,29.77,SW,215,0.0,0.0,94,0.00,,,0.00,0,Wunderground v.1.15,2013-09-01 07:50:00,
2013-09-01 04:00:00,69.0,67.5,29.76,SW,215,0.0,0.0,95,0.00,,,0.00,0,Wunderground v.1.15,2013-09-01 08:00:00,
2013-09-01 04:10:00,68.8,67.3,29.76,SW,214,0.0,0.0,95,0.00,,,0.00,0,Wunderground v.1.15,2013-09-01 08:10:00,
2013-09-01 04:20:00,68.8,67.3,29.76,SW,214,0.0,0.0,95,0.00,,,0.00,0,Wunderground v.1.15,2013-09-01 08:20:00,
2013-09-01 04:30:00,68.5,67.0,29.77,SW,214,0.0,0.0,95,0.00,,,0.00,0,Wunderground v.1.15,2013-09-01 08:30:00,
2013-09-01 04:40:00,68.0,66.5,29.77,SW,214,0.0,0.0,95,0.00,,,0.00,0,Wunderground v.1.15,2013-09-01 08:40:00,
2013-09-01 04:50:00,67.8,66.3,29.78,SW,214,0.0,0.0,95,0.00,,,0.00,0,Wunderground v.1.15,2013-09-01 08:50:00,
2013-09-01 05:00:00,67.5,66.0,29.78,SW,214,0.0,0.0,95,0.00,,,0.00,0,Wunderground v.1.15,2013-09-01 09:00:00,
2013-09-01 05:10:00,67.0,65.8,29.78,SW,214,0.0,0.0,96,0.00,,,0.00,0,Wunderground v.1.15,2013-09-01 09:10:00,
2013-09-01 05:20:00,67.1,65.9,29.78,SW,214,0.0,0.0,96,0.00,,,0.00,0,Wunderground v.1.15,2013-09-01 09:20:00,
2013-09-01 05:30:00,67.1,65.9,29.78,SW,214,0.0,0.0,96,0.00,,,0.00,0,Wunderground v.1.15,2013-09-01 09:30:00,
2013-09-01 05:40:00,66.8,65.6,29.78,SW,214,0.0,0.0,96,0.00,,,0.00,0,Wunderground v.1.15,2013-09-01 09:40:00,
2013-09-01 05:50:00,66.4,65.2,29.79,SW,214,0.0,0.0,96,0.00,,,0.00,0,Wunderground v.1.15,2013-09-01 09:50:00,
2013-09-01 06:00:00,67.0,66.1,29.80,SW,214,0.0,0.0,97,0.00,,,0.00,0,Wunderground v.1.15,2013-09-01 10:00:00,
2013-09-01 06:10:00,66.4,65.2,29.79,SW,214,0.0,0.0,96,0.00,,,0.00,0,Wunderground v.1.15,2013-09-01 10:10:00,
2013-09-01 06:20:00,66.3,65.4,29.80,SW,214,0.0,0.0,97,0.00,,,0.00,0,Wunderground v.1.15,2013-09-01 10:20:00,
2013-09-01 06:30:00,66.0,65.1,29.80,SW,214,0.0,0.0,97,0.00,,,0.00,0,Wunderground v.1.15,2013-09-01 10:30:00,
2013-09-01 06:40:00,66.2,65.3,29.80,SW,214,0.0,0.0,97,0.00,,,0.00,0,Wunderground v.1.15,2013-09-01 10:40:00,
2013-09-01 06:50:00,65.8,64.9,29.80,SW,214,0.0,0.0,97,0.00,,,0.00,11,Wunderground v.1.15,2013-09-01 10:50:00,
2013-09-01 07:00:00,66.1,65.2,29.80,SW,214,0.0,0.0,97,0.00,,,0.00,21,Wunderground v.1.15,2013-09-01 11:00:00,
2013-09-01 07:10:00,65.9,65.0,29.80,SW,214,0.0,0.0,97,0.00,,,0.00,37,Wunderground v.1.15,2013-09-01 11:10:00,
2013-09-01 07:20:00,66.4,65.5,29.80,SW,214,0.0,0.0,97,0.00,,,0.00,53,Wunderground v.1.15,2013-09-01 11:20:00,
2013-09-01 07:30:00,67.0,66.1,29.81,SW,214,0.0,0.0,97,0.00,,,0.00,70,Wunderground v.1.15,2013-09-01 11:30:00,
2013-09-01 07:40:00,67.7,66.8,29.81,SW,214,0.0,0.0,97,0.00,,,0.00,84,Wunderground v.1.15,2013-09-01 11:40:00,
2013-09-01 07:50:00,68.4,67.8,29.81,SW,214,0.0,0.0,98,0.00,,,0.00,127,Wunderground v.1.15,2013-09-01 11:50:00,
2013-09-01 08:00:00,68.8,67.9,29.81,SW,214,0.0,0.0,97,0.00,,,0.00,153,Wunderground v.1.15,2013-09-01 12:00:00,
2013-09-01 08:10:00,69.5,68.6,29.81,SW,214,0.0,0.0,97,0.00,,,0.00,188,Wunderground v.1.15,2013-09-01 12:10:00,
2013-09-01 08:20:00,70.0,69.1,29.81,SW,214,0.0,0.0,97,0.00,,,0.00,221,Wunderground v.1.15,2013-09-01 12:20:00,
2013-09-01 08:30:00,71.0,69.8,29.81,SSW,198,0.0,0.0,96,0.00,,,0.00,257,Wunderground v.1.15,2013-09-01 12:30:00,
2013-09-01 08:40:00,72.1,70.6,29.81,SSW,196,0.0,0.0,95,0.00,,,0.00,295,Wunderground v.1.15,2013-09-01 12:40:00,
2013-09-01 08:50:00,72.9,70.4,29.81,South,173,0.0,0.0,92,0.00,,,0.00,329,Wunderground v.1.15,2013-09-01 12:50:00,
2013-09-01 09:00:00,73.9,71.1,29.81,South,175,0.0,0.0,91,0.00,,,0.00,388,Wunderground v.1.15,2013-09-01 13:00:00,
2013-09-01 09:10:00,74.4,70.9,29.82,West,261,0.0,0.0,89,0.00,,,0.00,271,Wunderground v.1.15,2013-09-01 13:10:00,
2013-09-01 09:20:00,74.3,70.8,29.81,South,180,0.0,0.0,89,0.00,,,0.00,232,Wunderground v.1.15,2013-09-01 13:20:00,
2013-09-01 09:30:00,74.9,71.4,29.82,South,180,0.0,0.0,89,0.00,,,0.00,396,Wunderground v.1.15,2013-09-01 13:30:00,
2013-09-01 09:40:00,76.1,72.3,29.81,SW,219,0.0,0.0,88,0.00,,,0.00,468,Wunderground v.1.15,2013-09-01 13:40:00,
2013-09-01 09:50:00,76.7,72.2,29.81,SSE,163,0.0,0.0,86,0.00,,,0.00,499,Wunderground v.1.15,2013-09-01 13:50:00,
2013-09-01 10:00:00,77.4,72.5,29.82,SSE,167,0.0,0.0,85,0.00,,,0.00,512,Wunderground v.1.15,2013-09-01 14:00:00,
2013-09-01 10:10:00,78.0,72.4,29.82,South,169,0.0,0.0,83,0.00,,,0.00,438,Wunderground v.1.15,2013-09-01 14:10:00,
2013-09-01 10:20:00,79.2,73.6,29.81,South,180,1.0,1.0,83,0.00,,,0.00,559,Wunderground v.1.15,2013-09-01 14:20:00,
2013-09-01 10:30:00,79.9,72.4,29.81,WSW,250,0.0,0.0,78,0.00,,,0.00,612,Wunderground v.1.15,2013-09-01 14:30:00,
2013-09-01 10:40:00,80.0,72.1,29.81,WSW,257,0.0,0.0,77,0.00,,,0.00,628,Wunderground v.1.15,2013-09-01 14:40:00,
2013-09-01 10:50:00,80.9,71.8,29.81,West,260,0.0,0.0,74,0.00,,,0.00,652,Wunderground v.1.15,2013-09-01 14:50:00,
2013-09-01 11:00:00,81.8,73.1,29.80,SSE,153,0.0,2.0,75,0.00,,,0.00,675,Wunderground v.1.15,2013-09-01 15:00:00,
2013-09-01 11:10:00,81.7,72.6,29.81,SSE,153,1.0,1.0,74,0.00,,,0.00,703,Wunderground v.1.15,2013-09-01 15:10:00,
2013-09-01 11:20:00,81.9,72.8,29.81,SSE,154,1.0,4.0,74,0.00,,,0.00,726,Wunderground v.1.15,2013-09-01 15:20:00,
2013-09-01 11:30:00,82.7,73.6,29.81,SSE,148,1.0,1.0,74,0.00,,,0.00,742,Wunderground v.1.15,2013-09-01 15:30:00,
2013-09-01 11:40:00,83.4,73.8,29.81,West,270,0.0,0.0,73,0.00,,,0.00,339,Wunderground v.1.15,2013-09-01 15:40:00,
2013-09-01 11:50:00,84.2,73.3,29.81,NNW,344,1.0,1.0,70,0.00,,,0.00,826,Wunderground v.1.15,2013-09-01 15:50:00,
2013-09-01 12:00:00,83.5,73.1,29.80,NE,39,0.0,0.0,71,0.00,,,0.00,770,Wunderground v.1.15,2013-09-01 16:00:00,
2013-09-01 12:10:00,83.8,73.4,29.81,North,350,1.0,2.0,71,0.00,,,0.00,352,Wunderground v.1.15,2013-09-01 16:10:00,
2013-09-01 12:20:00,82.9,73.8,29.80,North,360,0.0,0.0,74,0.00,,,0.00,236,Wunderground v.1.15,2013-09-01 16:20:00,
2013-09-01 12:30:00,83.6,73.2,29.80,North,360,0.0,0.0,71,0.00,,,0.00,805,Wunderground v.1.15,2013-09-01 16:30:00,
2013-09-01 12:40:00,84.0,73.2,29.79,WSW,253,0.0,0.0,70,0.00,,,0.00,919,Wunderground v.1.15,2013-09-01 16:40:00,
2013-09-01 12:50:00,84.6,73.7,29.79,NNW,343,0.0,0.0,70,0.00,,,0.00,977,Wunderground v.1.15,2013-09-01 16:50:00,
2013-09-01 13:00:00,85.4,72.7,29.78,West,265,1.0,2.0,66,0.00,,,0.00,916,Wunderground v.1.15,2013-09-01 17:00:00,
2013-09-01 13:10:00,84.6,73.3,29.78,West,279,0.0,0.0,69,0.00,,,0.00,334,Wunderground v.1.15,2013-09-01 17:10:00,
2013-09-01 13:20:00,85.1,75.5,29.78,NNW,344,1.0,1.0,73,0.00,,,0.00,392,Wunderground v.1.15,2013-09-01 17:20:00,
2013-09-01 13:30:00,86.3,75.8,29.77,NNW,344,0.0,0.0,71,0.00,,,0.00,401,Wunderground v.1.15,2013-09-01 17:30:00,
2013-09-01 13:40:00,86.0,74.2,29.77,WSW,243,1.0,1.0,68,0.00,,,0.00,687,Wunderground v.1.15,2013-09-01 17:40:00,
2013-09-01 13:50:00,86.1,72.5,29.77,West,260,0.0,0.0,64,0.00,,,0.00,847,Wunderground v.1.15,2013-09-01 17:50:00,
2013-09-01 14:00:00,86.6,74.8,29.77,SSE,148,0.0,0.0,68,0.00,,,0.00,847,Wunderground v.1.15,2013-09-01 18:00:00,
2013-09-01 14:10:00,86.5,74.2,29.77,SSE,156,1.0,3.0,67,0.00,,,0.00,847,Wunderground v.1.15,2013-09-01 18:10:00,
2013-09-01 14:20:00,86.7,73.5,29.76,ESE,109,1.0,2.0,65,0.00,,,0.00,819,Wunderground v.1.15,2013-09-01 18:20:00,
2013-09-01 14:30:00,86.7,75.3,29.76,ESE,121,2.0,2.0,69,0.00,,,0.00,810,Wunderground v.1.15,2013-09-01 18:30:00,
2013-09-01 14:40:00,87.0,74.7,29.76,SE,146,1.0,1.0,67,0.00,,,0.00,629,Wunderground v.1.15,2013-09-01 18:40:00,
2013-09-01 14:50:00,86.8,72.7,29.75,North,355,0.0,0.0,63,0.00,,,0.00,795,Wunderground v.1.15,2013-09-01 18:50:00,
2013-09-01 15:00:00,88.1,73.9,29.75,WSW,239,1.0,1.0,63,0.00,,,0.00,726,Wunderground v.1.15,2013-09-01 19:00:00,
2013-09-01 15:10:00,87.3,72.7,29.75,West,261,1.0,1.0,62,0.00,,,0.00,330,Wunderground v.1.15,2013-09-01 19:10:00,
2013-09-01 15:20:00,86.8,74.5,29.74,West,277,0.0,0.0,67,0.00,,,0.00,348,Wunderground v.1.15,2013-09-01 19:20:00,
2013-09-01 15:30:00,86.5,74.7,29.75,ESE,105,0.0,4.0,68,0.00,,,0.00,237,Wunderground v.1.15,2013-09-01 19:30:00,
2013-09-01 15:40:00,85.9,74.5,29.75,ESE,114,1.0,1.0,69,0.00,,,0.00,251,Wunderground v.1.15,2013-09-01 19:40:00,
2013-09-01 15:50:00,85.7,76.0,29.74,ESE,103,0.0,0.0,73,0.00,,,0.00,190,Wunderground v.1.15,2013-09-01 19:50:00,
2013-09-01 16:00:00,85.2,74.3,29.74,ESE,103,0.0,0.0,70,0.00,,,0.00,172,Wunderground v.1.15,2013-09-01 20:00:00,
2013-09-01 16:10:00,85.1,76.3,29.74,ESE,103,0.0,0.0,75,0.00,,,0.00,248,Wunderground v.1.15,2013-09-01 20:10:00,
2013-09-01 16:20:00,85.6,75.1,29.74,ESE,103,0.0,0.0,71,0.00,,,0.00,269,Wunderground v.1.15,2013-09-01 20:20:00,
2013-09-01 16:30:00,85.9,76.6,29.74,ESE,103,0.0,0.0,74,0.00,,,0.00,316,Wunderground v.1.15,2013-09-01 20:30:00,
2013-09-01 16:40:00,86.3,75.4,29.74,ESE,103,0.0,0.0,70,0.00,,,0.00,265,Wunderground v.1.15,2013-09-01 20:40:00,
2013-09-01 16:50:00,85.8,74.4,29.73,ESE,103,0.0,0.0,69,0.00,,,0.00,144,Wunderground v.1.15,2013-09-01 20:50:00,
2013-09-01 17:10:00,85.0,76.2,29.72,ESE,103,0.0,0.0,75,0.00,,,0.00,128,Wunderground v.1.15,2013-09-01 21:10:00,
2013-09-01 17:20:00,84.9,75.3,29.73,ESE,103,0.0,0.0,73,0.00,,,0.00,105,Wunderground v.1.15,2013-09-01 21:20:00,
2013-09-01 17:30:00,84.9,75.3,29.73,ESE,103,0.0,0.0,73,0.00,,,0.00,134,Wunderground v.1.15,2013-09-01 21:30:00,
2013-09-01 17:40:00,84.8,74.8,29.73,ESE,103,0.0,0.0,72,0.00,,,0.00,97,Wunderground v.1.15,2013-09-01 21:40:00,
2013-09-01 17:50:00,84.1,76.5,29.72,ESE,103,0.0,0.0,78,0.00,,,0.00,58,Wunderground v.1.15,2013-09-01 21:50:00,
2013-09-01 18:00:00,83.6,76.4,29.72,ESE,103,0.0,0.0,79,0.00,,,0.00,26,Wunderground v.1.15,2013-09-01 22:00:00,
2013-09-01 18:10:00,83.3,77.2,29.72,ESE,103,0.0,0.0,82,0.00,,,0.00,35,Wunderground v.1.15,2013-09-01 22:10:00,
2013-09-01 18:20:00,82.3,77.7,29.73,ESE,103,0.0,0.0,86,0.00,,,0.00,44,Wunderground v.1.15,2013-09-01 22:20:00,
2013-09-01 18:30:00,82.0,76.3,29.73,ESE,103,0.0,0.0,83,0.00,,,0.00,28,Wunderground v.1.15,2013-09-01 22:30:00,
2013-09-01 18:40:00,82.6,76.2,29.72,ESE,103,0.0,0.0,81,0.00,,,0.00,26,Wunderground v.1.15,2013-09-01 22:40:00,
2013-09-01 18:50:00,81.3,74.9,29.73,NNW,344,1.0,1.0,81,0.00,,,0.00,11,Wunderground v.1.15,2013-09-01 22:50:00,
2013-09-01 19:00:00,78.9,72.2,29.73,NW,304,1.0,1.0,80,0.00,,,0.00,0,Wunderground v.1.15,2013-09-01 23:00:00,
2013-09-01 19:10:00,77.1,70.1,29.74,West,261,1.0,1.0,79,0.21,,,0.02,0,Wunderground v.1.15,2013-09-01 23:10:00,
2013-09-01 19:20:00,74.2,69.7,29.75,NNE,16,0.0,0.0,86,0.09,,,0.05,0,Wunderground v.1.15,2013-09-01 23:20:00,
2013-09-01 19:30:00,72.9,69.5,29.76,NNW,336,1.0,1.0,89,0.06,,,0.05,0,Wunderground v.1.15,2013-09-01 23:30:00,
2013-09-01 19:40:00,71.9,68.8,29.76,NNW,336,0.0,0.0,90,0.00,,,0.05,0,Wunderground v.1.15,2013-09-01 23:40:00,
2013-09-01 19:50:00,71.5,67.4,29.76,NNW,336,2.0,2.0,87,0.00,,,0.05,0,Wunderground v.1.15,2013-09-01 23:50:00,
2013-09-01 20:00:00,71.3,67.2,29.77,NW,315,1.0,1.0,87,2.54,,,0.09,0,Wunderground v.1.15,2013-09-02 00:00:00,
2013-09-01 20:10:00,71.1,68.0,29.76,North,355,0.0,0.0,90,0.46,,,0.25,0,Wunderground v.1.15,2013-09-02 00:10:00,
2013-09-01 20:20:00,70.9,68.5,29.75,North,355,0.0,0.0,92,0.19,,,0.27,0,Wunderground v.1.15,2013-09-02 00:20:00,
2013-09-01 20:30:00,71.1,69.0,29.76,ENE,65,1.0,1.0,93,0.17,,,0.30,0,Wunderground v.1.15,2013-09-02 00:30:00,
2013-09-01 20:40:00,70.5,68.4,29.77,SE,138,0.0,0.0,93,0.05,,,0.30,0,Wunderground v.1.15,2013-09-02 00:40:00,
2013-09-01 20:50:00,70.1,68.3,29.77,ESE,107,0.0,0.0,94,0.00,,,0.30,0,Wunderground v.1.15,2013-09-02 00:50:00,
2013-09-01 21:00:00,70.4,68.6,29.77,West,261,0.0,0.0,94,0.00,,,0.30,0,Wunderground v.1.15,2013-09-02 01:00:00,
2013-09-01 21:10:00,70.4,68.9,29.77,West,261,0.0,0.0,95,0.00,,,0.30,0,Wunderground v.1.15,2013-09-02 01:10:00,
2013-09-01 21:20:00,70.6,69.1,29.77,West,261,0.0,0.0,95,0.00,,,0.30,0,Wunderground v.1.15,2013-09-02 01:20:00,
2013-09-01 21:30:00,70.6,69.1,29.76,West,261,0.0,0.0,95,0.00,,,0.30,0,Wunderground v.1.15,2013-09-02 01:30:00,
2013-09-01 21:40:00,70.4,68.9,29.77,West,261,0.0,0.0,95,0.00,,,0.30,0,Wunderground v.1.15,2013-09-02 01:40:00,
2013-09-01 21:50:00,70.1,68.6,29.77,West,261,0.0,0.0,95,0.00,,,0.30,0,Wunderground v.1.15,2013-09-02 01:50:00,
2013-09-01 22:00:00,69.9,68.7,29.78,WSW,257,0.0,0.0,96,0.00,,,0.30,0,Wunderground v.1.15,2013-09-02 02:00:00,
2013-09-01 22:10:00,70.2,69.0,29.78,WSW,257,0.0,0.0,96,0.00,,,0.30,0,Wunderground v.1.15,2013-09-02 02:10:00,
2013-09-01 22:20:00,70.2,69.0,29.77,WSW,257,0.0,0.0,96,0.00,,,0.30,0,Wunderground v.1.15,2013-09-02 02:20:00,
2013-09-01 22:30:00,70.2,69.0,29.78,WSW,257,0.0,0.0,96,0.00,,,0.30,0,Wunderground v.1.15,2013-09-02 02:30:00,
2013-09-01 22:40:00,70.1,68.9,29.78,WSW,257,0.0,0.0,96,0.00,,,0.30,0,Wunderground v.1.15,2013-09-02 02:40:00,
2013-09-01 22:50:00,70.2,69.0,29.78,WSW,257,0.0,0.0,96,0.00,,,0.30,0,Wunderground v.1.15,2013-09-02 02:50:00,
2013-09-01 23:00:00,70.2,69.0,29.78,WSW,257,0.0,0.0,96,0.00,,,0.30,0,Wunderground v.1.15,2013-09-02 03:00:00,
2013-09-01 23:10:00,70.3,69.4,29.77,WSW,257,0.0,0.0,97,0.00,,,0.30,0,Wunderground v.1.15,2013-09-02 03:10:00,
2013-09-01 23:20:00,70.2,69.0,29.78,WSW,257,0.0,0.0,96,0.00,,,0.30,0,Wunderground v.1.15,2013-09-02 03:20:00,
2013-09-01 23:30:00,70.1,68.9,29.78,WSW,257,0.0,0.0,96,0.00,,,0.30,0,Wunderground v.1.15,2013-09-02 03:30:00,
2013-09-01 23:40:00,70.1,69.2,29.77,WSW,257,0.0,0.0,97,0.00,,,0.30,0,Wunderground v.1.15,2013-09-02 03:40:00,
2013-09-01 23:50:00,70.1,69.2,29.77,WSW,257,0.0,0.0,97,0.00,,,0.30,0,Wunderground v.1.15,2013-09-02 03:50:00,